owner,sensor,date,latitude,longitude,air_pressure(mBar),qcFlag 
WAVCIS,ioos:station:WAVCIS:CSI09:1,2008-09-01T00:00:00Z,29.1015,-89.9782,1004.731,11111222 
WAVCIS,ioos:station:WAVCIS:CSI09:1,2008-09-01T01:00:00Z,29.1015,-89.9782,1004.224,11111222 
WAVCIS,ioos:station:WAVCIS:CSI09:1,2008-09-01T02:00:00Z,29.1015,-89.9782,1003.696,11111222 
WAVCIS,ioos:station:WAVCIS:CSI09:1,2008-09-01T03:00:00Z,29.1015,-89.9782,1003.783,11111222 
WAVCIS,ioos:station:WAVCIS:CSI09:1,2008-09-01T04:00:00Z,29.1015,-89.9782,1002.295,11111222 
WAVCIS,ioos:station:WAVCIS:CSI09:1,2008-09-01T05:00:00Z,29.1015,-89.9782,999.283,11111222 
WAVCIS,ioos:station:WAVCIS:CSI09:1,2008-09-01T06:00:00Z,29.1015,-89.9782,997.218,11111222 
WAVCIS,ioos:station:WAVCIS:CSI09:1,2008-09-01T07:00:00Z,29.1015,-89.9782,993.773,11111222 
WAVCIS,ioos:station:WAVCIS:CSI09:1,2008-09-01T08:00:00Z,29.1015,-89.9782,989.77,11111222 
WAVCIS,ioos:station:WAVCIS:CSI09:1,2008-09-01T09:00:00Z,29.1015,-89.9782,983.46,11111222 
WAVCIS,ioos:station:WAVCIS:CSI09:1,2008-09-01T10:00:00Z,29.1015,-89.9782,975.16,11133222 
WAVCIS,ioos:station:WAVCIS:CSI09:1,2008-09-01T11:00:00Z,29.1015,-89.9782,969.51,11133222 
WAVCIS,ioos:station:WAVCIS:CSI09:1,2008-09-01T12:00:00Z,29.1015,-89.9782,965.8,11133222 
WAVCIS,ioos:station:WAVCIS:CSI09:1,2008-09-01T13:00:00Z,29.1015,-89.9782,969.02,11133222 
WAVCIS,ioos:station:WAVCIS:CSI09:1,2008-09-01T14:00:00Z,29.1015,-89.9782,973.82,11133222 
WAVCIS,ioos:station:WAVCIS:CSI09:1,2008-09-01T15:00:00Z,29.1015,-89.9782,980.38,11111222 
WAVCIS,ioos:station:WAVCIS:CSI09:1,2008-09-01T16:00:00Z,29.1015,-89.9782,986.6,11111222 
WAVCIS,ioos:station:WAVCIS:CSI09:1,2008-09-01T17:00:00Z,29.1015,-89.9782,990.99,11111222 
WAVCIS,ioos:station:WAVCIS:CSI09:1,2008-09-01T18:00:00Z,29.1015,-89.9782,994.08,11111222 
WAVCIS,ioos:station:WAVCIS:CSI09:1,2008-09-01T19:00:00Z,29.1015,-89.9782,995.774,11111222 
WAVCIS,ioos:station:WAVCIS:CSI09:1,2008-09-01T20:00:00Z,29.1015,-89.9782,996.854,11111222 
WAVCIS,ioos:station:WAVCIS:CSI09:1,2008-09-01T21:00:00Z,29.1015,-89.9782,997.459,11111222 
WAVCIS,ioos:station:WAVCIS:CSI09:1,2008-09-01T22:00:00Z,29.1015,-89.9782,999.507,11111222 
WAVCIS,ioos:station:WAVCIS:CSI09:1,2008-09-01T23:00:00Z,29.1015,-89.9782,1000.217,11111222 
WAVCIS,ioos:station:WAVCIS:CSI09:1,2008-09-02T00:00:00Z,29.1015,-89.9782,1000.879,11111222 
WAVCIS,ioos:station:WAVCIS:CSI09:1,2008-09-02T01:00:00Z,29.1015,-89.9782,1001.691,11111222 
WAVCIS,ioos:station:WAVCIS:CSI09:1,2008-09-02T02:00:00Z,29.1015,-89.9782,1002.927,11111222 
WAVCIS,ioos:station:WAVCIS:CSI09:1,2008-09-02T03:00:00Z,29.1015,-89.9782,1003.984,11111222 
WAVCIS,ioos:station:WAVCIS:CSI09:1,2008-09-02T04:00:00Z,29.1015,-89.9782,1004.794,11111222 
WAVCIS,ioos:station:WAVCIS:CSI09:1,2008-09-02T05:00:00Z,29.1015,-89.9782,1005.058,11111222 
WAVCIS,ioos:station:WAVCIS:CSI09:1,2008-09-02T06:00:00Z,29.1015,-89.9782,1005.353,11111222 
WAVCIS,ioos:station:WAVCIS:CSI09:1,2008-09-02T07:00:00Z,29.1015,-89.9782,1005.358,11111222 
WAVCIS,ioos:station:WAVCIS:CSI09:1,2008-09-02T08:00:00Z,29.1015,-89.9782,1005.555,11111222 
WAVCIS,ioos:station:WAVCIS:CSI09:1,2008-09-02T09:00:00Z,29.1015,-89.9782,1005.647,11111222 
WAVCIS,ioos:station:WAVCIS:CSI09:1,2008-09-02T10:00:00Z,29.1015,-89.9782,1005.655,11111222 
WAVCIS,ioos:station:WAVCIS:CSI09:1,2008-09-02T11:00:00Z,29.1015,-89.9782,1006.336,11111222 
WAVCIS,ioos:station:WAVCIS:CSI09:1,2008-09-02T12:00:00Z,29.1015,-89.9782,1006.732,11111222 
WAVCIS,ioos:station:WAVCIS:CSI09:1,2008-09-02T13:00:00Z,29.1015,-89.9782,1007.73,11111222 
WAVCIS,ioos:station:WAVCIS:CSI09:1,2008-09-02T15:00:00Z,29.1015,-89.9782,1008.83,11111222 
WAVCIS,ioos:station:WAVCIS:CSI09:1,2008-09-02T16:00:00Z,29.1015,-89.9782,1009.33,11111222 
WAVCIS,ioos:station:WAVCIS:CSI09:1,2008-09-02T17:00:00Z,29.1015,-89.9782,1009.2,11111222 
WAVCIS,ioos:station:WAVCIS:CSI09:1,2008-09-02T18:00:00Z,29.1015,-89.9782,1009.22,11111222 
WAVCIS,ioos:station:WAVCIS:CSI09:1,2008-09-02T19:00:00Z,29.1015,-89.9782,1009.08,11111222 
WAVCIS,ioos:station:WAVCIS:CSI09:1,2008-09-02T20:00:00Z,29.1015,-89.9782,1008.69,11111222 
WAVCIS,ioos:station:WAVCIS:CSI09:1,2008-09-02T21:00:00Z,29.1015,-89.9782,1008.38,11111222 
WAVCIS,ioos:station:WAVCIS:CSI09:1,2008-09-02T22:00:00Z,29.1015,-89.9782,1008.22,11111222 
WAVCIS,ioos:station:WAVCIS:CSI09:1,2008-09-02T23:00:00Z,29.1015,-89.9782,1008.28,11111222 
WAVCIS,ioos:station:WAVCIS:CSI09:1,2008-09-03T00:00:00Z,29.1015,-89.9782,1007.97,11111222 
WAVCIS,ioos:station:WAVCIS:CSI09:1,2008-09-03T01:00:00Z,29.1015,-89.9782,1008.36,11111222 
WAVCIS,ioos:station:WAVCIS:CSI09:1,2008-09-03T02:00:00Z,29.1015,-89.9782,1008.73,11111222 
WAVCIS,ioos:station:WAVCIS:CSI09:1,2008-09-03T03:00:00Z,29.1015,-89.9782,1008.79,11111222 
WAVCIS,ioos:station:WAVCIS:CSI09:1,2008-09-03T04:00:00Z,29.1015,-89.9782,1008.89,11111222 
WAVCIS,ioos:station:WAVCIS:CSI09:1,2008-09-03T05:00:00Z,29.1015,-89.9782,1008.79,11111222 
WAVCIS,ioos:station:WAVCIS:CSI09:1,2008-09-03T06:00:00Z,29.1015,-89.9782,1008.56,11111222 
WAVCIS,ioos:station:WAVCIS:CSI09:1,2008-09-03T07:00:00Z,29.1015,-89.9782,1008.57,11111222 
WAVCIS,ioos:station:WAVCIS:CSI09:1,2008-09-03T08:00:00Z,29.1015,-89.9782,1008.01,11111222 
WAVCIS,ioos:station:WAVCIS:CSI09:1,2008-09-03T09:00:00Z,29.1015,-89.9782,1007.86,11111222 
WAVCIS,ioos:station:WAVCIS:CSI09:1,2008-09-03T10:00:00Z,29.1015,-89.9782,1007.7,11111222 
WAVCIS,ioos:station:WAVCIS:CSI09:1,2008-09-03T11:00:00Z,29.1015,-89.9782,1008.03,11111222 
WAVCIS,ioos:station:WAVCIS:CSI09:1,2008-09-03T12:00:00Z,29.1015,-89.9782,1008.46,11111222 
WAVCIS,ioos:station:WAVCIS:CSI09:1,2008-09-03T13:00:00Z,29.1015,-89.9782,1008.97,11111222 
WAVCIS,ioos:station:WAVCIS:CSI09:1,2008-09-03T14:00:00Z,29.1015,-89.9782,1009.01,11111222 
WAVCIS,ioos:station:WAVCIS:CSI09:1,2008-09-03T15:00:00Z,29.1015,-89.9782,1009.23,11111222 
WAVCIS,ioos:station:WAVCIS:CSI09:1,2008-09-03T16:00:00Z,29.1015,-89.9782,1009.8,11111222 
WAVCIS,ioos:station:WAVCIS:CSI09:1,2008-09-03T17:00:00Z,29.1015,-89.9782,1009.69,11111222 
WAVCIS,ioos:station:WAVCIS:CSI09:1,2008-09-03T18:00:00Z,29.1015,-89.9782,1009.45,11111222 
WAVCIS,ioos:station:WAVCIS:CSI09:1,2008-09-03T19:00:00Z,29.1015,-89.9782,1009.1,11111222 
WAVCIS,ioos:station:WAVCIS:CSI09:1,2008-09-03T20:00:00Z,29.1015,-89.9782,1008.55,11111222 
WAVCIS,ioos:station:WAVCIS:CSI09:1,2008-09-03T21:00:00Z,29.1015,-89.9782,1008.17,11111222 
WAVCIS,ioos:station:WAVCIS:CSI09:1,2008-09-03T22:00:00Z,29.1015,-89.9782,1008.02,11111222 
WAVCIS,ioos:station:WAVCIS:CSI09:1,2008-09-03T23:00:00Z,29.1015,-89.9782,1008.3,11111222 
WAVCIS,ioos:station:WAVCIS:CSI09:1,2008-09-04T00:00:00Z,29.1015,-89.9782,1007.75,11111222 
WAVCIS,ioos:station:WAVCIS:CSI09:1,2008-09-04T01:00:00Z,29.1015,-89.9782,1007.77,11111222 
WAVCIS,ioos:station:WAVCIS:CSI09:1,2008-09-04T02:00:00Z,29.1015,-89.9782,1007.76,11111222 
WAVCIS,ioos:station:WAVCIS:CSI09:1,2008-09-04T03:00:00Z,29.1015,-89.9782,1007.86,11111222 
WAVCIS,ioos:station:WAVCIS:CSI09:1,2008-09-04T04:00:00Z,29.1015,-89.9782,1007.91,11111222 
WAVCIS,ioos:station:WAVCIS:CSI09:1,2008-09-04T05:00:00Z,29.1015,-89.9782,1007.81,11111222 
WAVCIS,ioos:station:WAVCIS:CSI09:1,2008-09-04T06:00:00Z,29.1015,-89.9782,1007.65,11111222 
WAVCIS,ioos:station:WAVCIS:CSI09:1,2008-09-04T07:00:00Z,29.1015,-89.9782,1007.65,11111222 
WAVCIS,ioos:station:WAVCIS:CSI09:1,2008-09-04T08:00:00Z,29.1015,-89.9782,1007.52,11111222 
WAVCIS,ioos:station:WAVCIS:CSI09:1,2008-09-04T09:00:00Z,29.1015,-89.9782,1007.78,11111222 
WAVCIS,ioos:station:WAVCIS:CSI09:1,2008-09-04T10:00:00Z,29.1015,-89.9782,1008.07,11111222 
WAVCIS,ioos:station:WAVCIS:CSI09:1,2008-09-04T11:00:00Z,29.1015,-89.9782,1008.2,11111222 
WAVCIS,ioos:station:WAVCIS:CSI09:1,2008-09-04T12:00:00Z,29.1015,-89.9782,1008.41,11111222 
WAVCIS,ioos:station:WAVCIS:CSI09:1,2008-09-04T13:00:00Z,29.1015,-89.9782,1008.55,11111222 
WAVCIS,ioos:station:WAVCIS:CSI09:1,2008-09-04T14:00:00Z,29.1015,-89.9782,1008.54,11111222 
WAVCIS,ioos:station:WAVCIS:CSI09:1,2008-09-04T15:00:00Z,29.1015,-89.9782,1009.27,11111222 
WAVCIS,ioos:station:WAVCIS:CSI09:1,2008-09-04T16:00:00Z,29.1015,-89.9782,1009.73,11111222 
WAVCIS,ioos:station:WAVCIS:CSI09:1,2008-09-04T17:00:00Z,29.1015,-89.9782,1009.51,11111222 
WAVCIS,ioos:station:WAVCIS:CSI09:1,2008-09-04T18:00:00Z,29.1015,-89.9782,1009.48,11111222 
WAVCIS,ioos:station:WAVCIS:CSI09:1,2008-09-04T19:00:00Z,29.1015,-89.9782,1008.73,11111222 
WAVCIS,ioos:station:WAVCIS:CSI09:1,2008-09-04T20:00:00Z,29.1015,-89.9782,1007.97,11111222 
WAVCIS,ioos:station:WAVCIS:CSI09:1,2008-09-04T21:00:00Z,29.1015,-89.9782,1008.14,11111222 
WAVCIS,ioos:station:WAVCIS:CSI09:1,2008-09-04T22:00:00Z,29.1015,-89.9782,1007.78,11111222 
WAVCIS,ioos:station:WAVCIS:CSI09:1,2008-09-04T23:00:00Z,29.1015,-89.9782,1007.35,11111222 
WAVCIS,ioos:station:WAVCIS:CSI09:1,2008-09-05T00:00:00Z,29.1015,-89.9782,1007.13,11111222 
WAVCIS,ioos:station:WAVCIS:CSI09:1,2008-09-05T01:00:00Z,29.1015,-89.9782,1007.061,11111222 
WAVCIS,ioos:station:WAVCIS:CSI09:1,2008-09-05T02:00:00Z,29.1015,-89.9782,1007.69,11111222 
WAVCIS,ioos:station:WAVCIS:CSI09:1,2008-09-05T03:00:00Z,29.1015,-89.9782,1008.0,11111222 
WAVCIS,ioos:station:WAVCIS:CSI09:1,2008-09-05T04:00:00Z,29.1015,-89.9782,1008.21,11111222 
WAVCIS,ioos:station:WAVCIS:CSI09:1,2008-09-05T05:00:00Z,29.1015,-89.9782,1008.13,11111222 
WAVCIS,ioos:station:WAVCIS:CSI09:1,2008-09-05T06:00:00Z,29.1015,-89.9782,1007.93,11111222 
WAVCIS,ioos:station:WAVCIS:CSI09:1,2008-09-05T07:00:00Z,29.1015,-89.9782,1007.53,11111222 
WAVCIS,ioos:station:WAVCIS:CSI09:1,2008-09-05T08:00:00Z,29.1015,-89.9782,1007.54,11111222 
WAVCIS,ioos:station:WAVCIS:CSI09:1,2008-09-05T09:00:00Z,29.1015,-89.9782,1007.49,11111222 
WAVCIS,ioos:station:WAVCIS:CSI09:1,2008-09-05T10:00:00Z,29.1015,-89.9782,1007.24,11111222 
WAVCIS,ioos:station:WAVCIS:CSI09:1,2008-09-05T11:00:00Z,29.1015,-89.9782,1007.69,11111222 
WAVCIS,ioos:station:WAVCIS:CSI09:1,2008-09-05T12:00:00Z,29.1015,-89.9782,1007.96,11111222 
WAVCIS,ioos:station:WAVCIS:CSI09:1,2008-09-05T13:00:00Z,29.1015,-89.9782,1008.4,11111222 
WAVCIS,ioos:station:WAVCIS:CSI09:1,2008-09-05T14:00:00Z,29.1015,-89.9782,1008.51,11111222 
WAVCIS,ioos:station:WAVCIS:CSI09:1,2008-09-05T15:00:00Z,29.1015,-89.9782,1009.3,11111222 
WAVCIS,ioos:station:WAVCIS:CSI09:1,2008-09-05T16:00:00Z,29.1015,-89.9782,1009.65,11111222 
WAVCIS,ioos:station:WAVCIS:CSI09:1,2008-09-05T17:00:00Z,29.1015,-89.9782,1009.84,11111222 
WAVCIS,ioos:station:WAVCIS:CSI09:1,2008-09-05T18:00:00Z,29.1015,-89.9782,1009.77,11111222 
WAVCIS,ioos:station:WAVCIS:CSI09:1,2008-09-05T19:00:00Z,29.1015,-89.9782,1009.29,11111222 
WAVCIS,ioos:station:WAVCIS:CSI09:1,2008-09-05T20:00:00Z,29.1015,-89.9782,1008.89,11111222 
WAVCIS,ioos:station:WAVCIS:CSI09:1,2008-09-05T21:00:00Z,29.1015,-89.9782,1008.73,11111222 
WAVCIS,ioos:station:WAVCIS:CSI09:1,2008-09-05T22:00:00Z,29.1015,-89.9782,1008.72,11111222 
WAVCIS,ioos:station:WAVCIS:CSI09:1,2008-09-05T23:00:00Z,29.1015,-89.9782,1008.69,11111222 
WAVCIS,ioos:station:WAVCIS:CSI09:1,2008-09-06T00:00:00Z,29.1015,-89.9782,1008.59,11111222 
WAVCIS,ioos:station:WAVCIS:CSI09:1,2008-09-06T01:00:00Z,29.1015,-89.9782,1008.76,11111222 
WAVCIS,ioos:station:WAVCIS:CSI09:1,2008-09-06T02:00:00Z,29.1015,-89.9782,1009.48,11111222 
WAVCIS,ioos:station:WAVCIS:CSI09:1,2008-09-06T03:00:00Z,29.1015,-89.9782,1009.96,11111222 
WAVCIS,ioos:station:WAVCIS:CSI09:1,2008-09-06T04:00:00Z,29.1015,-89.9782,1010.23,11111222 
WAVCIS,ioos:station:WAVCIS:CSI09:1,2008-09-06T05:00:00Z,29.1015,-89.9782,1010.54,11111222 
WAVCIS,ioos:station:WAVCIS:CSI09:1,2008-09-06T06:00:00Z,29.1015,-89.9782,1010.26,11111222 
WAVCIS,ioos:station:WAVCIS:CSI09:1,2008-09-06T07:00:00Z,29.1015,-89.9782,1010.13,11111222 
WAVCIS,ioos:station:WAVCIS:CSI09:1,2008-09-06T08:00:00Z,29.1015,-89.9782,1009.89,11111222 
WAVCIS,ioos:station:WAVCIS:CSI09:1,2008-09-06T09:00:00Z,29.1015,-89.9782,1010.16,11111222 
WAVCIS,ioos:station:WAVCIS:CSI09:1,2008-09-06T10:00:00Z,29.1015,-89.9782,1010.17,11111222 
WAVCIS,ioos:station:WAVCIS:CSI09:1,2008-09-06T11:00:00Z,29.1015,-89.9782,1010.62,11111222 
WAVCIS,ioos:station:WAVCIS:CSI09:1,2008-09-06T12:00:00Z,29.1015,-89.9782,1010.95,11111222 
WAVCIS,ioos:station:WAVCIS:CSI09:1,2008-09-06T13:00:00Z,29.1015,-89.9782,1011.57,11111222 
WAVCIS,ioos:station:WAVCIS:CSI09:1,2008-09-06T14:00:00Z,29.1015,-89.9782,1012.05,11111222 
WAVCIS,ioos:station:WAVCIS:CSI09:1,2008-09-06T15:00:00Z,29.1015,-89.9782,1012.53,11111222 
WAVCIS,ioos:station:WAVCIS:CSI09:1,2008-09-06T16:00:00Z,29.1015,-89.9782,1013.22,11111222 
WAVCIS,ioos:station:WAVCIS:CSI09:1,2008-09-06T17:00:00Z,29.1015,-89.9782,1013.58,11111222 
WAVCIS,ioos:station:WAVCIS:CSI09:1,2008-09-06T18:00:00Z,29.1015,-89.9782,1013.55,11111222 
WAVCIS,ioos:station:WAVCIS:CSI09:1,2008-09-06T19:00:00Z,29.1015,-89.9782,1013.38,11111222 
WAVCIS,ioos:station:WAVCIS:CSI09:1,2008-09-06T20:00:00Z,29.1015,-89.9782,1013.23,11111222 
WAVCIS,ioos:station:WAVCIS:CSI09:1,2008-09-06T21:00:00Z,29.1015,-89.9782,1013.12,11111222 
WAVCIS,ioos:station:WAVCIS:CSI09:1,2008-09-06T22:00:00Z,29.1015,-89.9782,1013.25,11111222 
WAVCIS,ioos:station:WAVCIS:CSI09:1,2008-09-06T23:00:00Z,29.1015,-89.9782,1013.13,11111222 
WAVCIS,ioos:station:WAVCIS:CSI09:1,2008-09-07T00:00:00Z,29.1015,-89.9782,1013.0,11111222 
WAVCIS,ioos:station:WAVCIS:CSI09:1,2008-09-07T01:00:00Z,29.1015,-89.9782,1013.41,11111222 
WAVCIS,ioos:station:WAVCIS:CSI09:1,2008-09-07T02:00:00Z,29.1015,-89.9782,1014.13,11111222 
WAVCIS,ioos:station:WAVCIS:CSI09:1,2008-09-07T03:00:00Z,29.1015,-89.9782,1014.65,11111222 
WAVCIS,ioos:station:WAVCIS:CSI09:1,2008-09-07T04:00:00Z,29.1015,-89.9782,1014.9,11111222 
WAVCIS,ioos:station:WAVCIS:CSI09:1,2008-09-07T05:00:00Z,29.1015,-89.9782,1014.93,11111222 
WAVCIS,ioos:station:WAVCIS:CSI09:1,2008-09-07T06:00:00Z,29.1015,-89.9782,1014.97,11111222 
WAVCIS,ioos:station:WAVCIS:CSI09:1,2008-09-07T07:00:00Z,29.1015,-89.9782,1014.69,11111222 
WAVCIS,ioos:station:WAVCIS:CSI09:1,2008-09-07T08:00:00Z,29.1015,-89.9782,1014.47,11111222 
WAVCIS,ioos:station:WAVCIS:CSI09:1,2008-09-07T09:00:00Z,29.1015,-89.9782,1014.1,11111222 
WAVCIS,ioos:station:WAVCIS:CSI09:1,2008-09-07T10:00:00Z,29.1015,-89.9782,1014.27,11111222 
WAVCIS,ioos:station:WAVCIS:CSI09:1,2008-09-07T11:00:00Z,29.1015,-89.9782,1014.56,11111222 
WAVCIS,ioos:station:WAVCIS:CSI09:1,2008-09-07T12:00:00Z,29.1015,-89.9782,1014.93,11111222 
WAVCIS,ioos:station:WAVCIS:CSI09:1,2008-09-07T13:00:00Z,29.1015,-89.9782,1015.65,11111222 
WAVCIS,ioos:station:WAVCIS:CSI09:1,2008-09-07T14:00:00Z,29.1015,-89.9782,1015.95,11111222 
WAVCIS,ioos:station:WAVCIS:CSI09:1,2008-09-07T15:00:00Z,29.1015,-89.9782,1016.68,11111222 
WAVCIS,ioos:station:WAVCIS:CSI09:1,2008-09-07T16:00:00Z,29.1015,-89.9782,1017.37,11111222 
WAVCIS,ioos:station:WAVCIS:CSI09:1,2008-09-07T17:00:00Z,29.1015,-89.9782,1017.35,11111222 
WAVCIS,ioos:station:WAVCIS:CSI09:1,2008-09-07T18:00:00Z,29.1015,-89.9782,1016.98,11111222 
WAVCIS,ioos:station:WAVCIS:CSI09:1,2008-09-07T19:00:00Z,29.1015,-89.9782,1016.7,11111222 
WAVCIS,ioos:station:WAVCIS:CSI09:1,2008-09-07T20:00:00Z,29.1015,-89.9782,1016.18,11111222 
WAVCIS,ioos:station:WAVCIS:CSI09:1,2008-09-07T21:00:00Z,29.1015,-89.9782,1015.72,11111222 
WAVCIS,ioos:station:WAVCIS:CSI09:1,2008-09-07T22:00:00Z,29.1015,-89.9782,1015.59,11111222 
WAVCIS,ioos:station:WAVCIS:CSI09:1,2008-09-07T23:00:00Z,29.1015,-89.9782,1015.49,11111222 
WAVCIS,ioos:station:WAVCIS:CSI09:1,2008-09-08T00:00:00Z,29.1015,-89.9782,1015.48,11111222 
WAVCIS,ioos:station:WAVCIS:CSI09:1,2008-09-08T01:00:00Z,29.1015,-89.9782,1015.55,11111222 
WAVCIS,ioos:station:WAVCIS:CSI09:1,2008-09-08T02:00:00Z,29.1015,-89.9782,1016.01,11111222 
WAVCIS,ioos:station:WAVCIS:CSI09:1,2008-09-08T03:00:00Z,29.1015,-89.9782,1016.0,11111222 
WAVCIS,ioos:station:WAVCIS:CSI09:1,2008-09-08T04:00:00Z,29.1015,-89.9782,1016.01,11111222 
WAVCIS,ioos:station:WAVCIS:CSI09:1,2008-09-08T05:00:00Z,29.1015,-89.9782,1015.9,11111222 
WAVCIS,ioos:station:WAVCIS:CSI09:1,2008-09-08T06:00:00Z,29.1015,-89.9782,1015.6,11111222 
WAVCIS,ioos:station:WAVCIS:CSI09:1,2008-09-08T07:00:00Z,29.1015,-89.9782,1015.57,11111222 
WAVCIS,ioos:station:WAVCIS:CSI09:1,2008-09-08T08:00:00Z,29.1015,-89.9782,1015.33,11111222 
WAVCIS,ioos:station:WAVCIS:CSI09:1,2008-09-08T09:00:00Z,29.1015,-89.9782,1015.18,11111222 
WAVCIS,ioos:station:WAVCIS:CSI09:1,2008-09-08T10:00:00Z,29.1015,-89.9782,1015.23,11111222 
WAVCIS,ioos:station:WAVCIS:CSI09:1,2008-09-08T11:00:00Z,29.1015,-89.9782,1015.36,11111222 
WAVCIS,ioos:station:WAVCIS:CSI09:1,2008-09-08T12:00:00Z,29.1015,-89.9782,1015.52,11111222 
WAVCIS,ioos:station:WAVCIS:CSI09:1,2008-09-08T13:00:00Z,29.1015,-89.9782,1015.77,11111222 
WAVCIS,ioos:station:WAVCIS:CSI09:1,2008-09-08T14:00:00Z,29.1015,-89.9782,1016.12,11111222 
WAVCIS,ioos:station:WAVCIS:CSI09:1,2008-09-08T15:00:00Z,29.1015,-89.9782,1016.27,11111222 
WAVCIS,ioos:station:WAVCIS:CSI09:1,2008-09-08T16:00:00Z,29.1015,-89.9782,1016.47,11111222 
WAVCIS,ioos:station:WAVCIS:CSI09:1,2008-09-08T17:00:00Z,29.1015,-89.9782,1016.3,11111222 
WAVCIS,ioos:station:WAVCIS:CSI09:1,2008-09-08T18:00:00Z,29.1015,-89.9782,1015.85,11111222 
WAVCIS,ioos:station:WAVCIS:CSI09:1,2008-09-08T19:00:00Z,29.1015,-89.9782,1015.37,11111222 
WAVCIS,ioos:station:WAVCIS:CSI09:1,2008-09-08T20:00:00Z,29.1015,-89.9782,1015.02,11111222 
WAVCIS,ioos:station:WAVCIS:CSI09:1,2008-09-08T21:00:00Z,29.1015,-89.9782,1014.38,11111222 
WAVCIS,ioos:station:WAVCIS:CSI09:1,2008-09-08T22:00:00Z,29.1015,-89.9782,1013.83,11111222 
WAVCIS,ioos:station:WAVCIS:CSI09:1,2008-09-08T23:00:00Z,29.1015,-89.9782,1013.97,11111222 
WAVCIS,ioos:station:WAVCIS:CSI09:1,2008-09-09T00:00:00Z,29.1015,-89.9782,1013.99,11111222 
WAVCIS,ioos:station:WAVCIS:CSI09:1,2008-09-09T01:00:00Z,29.1015,-89.9782,1014.79,11111222 
WAVCIS,ioos:station:WAVCIS:CSI09:1,2008-09-09T02:00:00Z,29.1015,-89.9782,1015.17,11111222 
WAVCIS,ioos:station:WAVCIS:CSI09:1,2008-09-09T03:00:00Z,29.1015,-89.9782,1015.22,11111222 
WAVCIS,ioos:station:WAVCIS:CSI09:1,2008-09-09T04:00:00Z,29.1015,-89.9782,1015.07,11111222 
WAVCIS,ioos:station:WAVCIS:CSI09:1,2008-09-09T05:00:00Z,29.1015,-89.9782,1014.54,11111222 
WAVCIS,ioos:station:WAVCIS:CSI09:1,2008-09-09T06:00:00Z,29.1015,-89.9782,1014.22,11111222 
WAVCIS,ioos:station:WAVCIS:CSI09:1,2008-09-09T07:00:00Z,29.1015,-89.9782,1013.57,11111222 
WAVCIS,ioos:station:WAVCIS:CSI09:1,2008-09-09T08:00:00Z,29.1015,-89.9782,1013.07,11111222 
WAVCIS,ioos:station:WAVCIS:CSI09:1,2008-09-09T09:00:00Z,29.1015,-89.9782,1012.75,11111222 
WAVCIS,ioos:station:WAVCIS:CSI09:1,2008-09-09T10:00:00Z,29.1015,-89.9782,1012.47,11111222 
WAVCIS,ioos:station:WAVCIS:CSI09:1,2008-09-09T11:00:00Z,29.1015,-89.9782,1012.8,11111222 
WAVCIS,ioos:station:WAVCIS:CSI09:1,2008-09-09T12:00:00Z,29.1015,-89.9782,1013.28,11111222 
WAVCIS,ioos:station:WAVCIS:CSI09:1,2008-09-09T13:00:00Z,29.1015,-89.9782,1013.71,11111222 
WAVCIS,ioos:station:WAVCIS:CSI09:1,2008-09-09T14:00:00Z,29.1015,-89.9782,1013.76,11111222 
WAVCIS,ioos:station:WAVCIS:CSI09:1,2008-09-09T15:00:00Z,29.1015,-89.9782,1014.19,11111222 
WAVCIS,ioos:station:WAVCIS:CSI09:1,2008-09-09T16:00:00Z,29.1015,-89.9782,1014.41,11111222 
WAVCIS,ioos:station:WAVCIS:CSI09:1,2008-09-09T17:00:00Z,29.1015,-89.9782,1014.43,11111222 
WAVCIS,ioos:station:WAVCIS:CSI09:1,2008-09-09T18:00:00Z,29.1015,-89.9782,1014.25,11111222 
WAVCIS,ioos:station:WAVCIS:CSI09:1,2008-09-09T19:00:00Z,29.1015,-89.9782,1013.94,11111222 
WAVCIS,ioos:station:WAVCIS:CSI09:1,2008-09-09T20:00:00Z,29.1015,-89.9782,1013.37,11111222 
WAVCIS,ioos:station:WAVCIS:CSI09:1,2008-09-09T21:00:00Z,29.1015,-89.9782,1012.77,11111222 
WAVCIS,ioos:station:WAVCIS:CSI09:1,2008-09-09T22:00:00Z,29.1015,-89.9782,1012.15,11111222 
WAVCIS,ioos:station:WAVCIS:CSI09:1,2008-09-09T23:00:00Z,29.1015,-89.9782,1012.13,11111222 
WAVCIS,ioos:station:WAVCIS:CSI09:1,2008-09-10T00:00:00Z,29.1015,-89.9782,1012.32,11111222 
WAVCIS,ioos:station:WAVCIS:CSI09:1,2008-09-10T01:00:00Z,29.1015,-89.9782,1012.44,11111222 
WAVCIS,ioos:station:WAVCIS:CSI09:1,2008-09-10T02:00:00Z,29.1015,-89.9782,1013.32,11111222 
WAVCIS,ioos:station:WAVCIS:CSI09:1,2008-09-10T03:00:00Z,29.1015,-89.9782,1013.34,11111222 
WAVCIS,ioos:station:WAVCIS:CSI09:1,2008-09-10T04:00:00Z,29.1015,-89.9782,1013.07,11111222 
WAVCIS,ioos:station:WAVCIS:CSI09:1,2008-09-10T05:00:00Z,29.1015,-89.9782,1012.84,11111222 
WAVCIS,ioos:station:WAVCIS:CSI09:1,2008-09-10T06:00:00Z,29.1015,-89.9782,1012.29,11111222 
WAVCIS,ioos:station:WAVCIS:CSI09:1,2008-09-10T07:00:00Z,29.1015,-89.9782,1011.93,11111222 
WAVCIS,ioos:station:WAVCIS:CSI09:1,2008-09-10T08:00:00Z,29.1015,-89.9782,1011.58,11111222 
WAVCIS,ioos:station:WAVCIS:CSI09:1,2008-09-10T09:00:00Z,29.1015,-89.9782,1011.26,11111222 
WAVCIS,ioos:station:WAVCIS:CSI09:1,2008-09-10T10:00:00Z,29.1015,-89.9782,1011.39,11111222 
WAVCIS,ioos:station:WAVCIS:CSI09:1,2008-09-10T11:00:00Z,29.1015,-89.9782,1011.37,11111222 
WAVCIS,ioos:station:WAVCIS:CSI09:1,2008-09-10T12:00:00Z,29.1015,-89.9782,1011.9,11111222 
WAVCIS,ioos:station:WAVCIS:CSI09:1,2008-09-10T13:00:00Z,29.1015,-89.9782,1012.33,11111222 
WAVCIS,ioos:station:WAVCIS:CSI09:1,2008-09-10T14:00:00Z,29.1015,-89.9782,1012.82,11111222 
WAVCIS,ioos:station:WAVCIS:CSI09:1,2008-09-10T15:00:00Z,29.1015,-89.9782,1012.93,11111222 
WAVCIS,ioos:station:WAVCIS:CSI09:1,2008-09-10T16:00:00Z,29.1015,-89.9782,1012.94,11111222 
WAVCIS,ioos:station:WAVCIS:CSI09:1,2008-09-10T17:00:00Z,29.1015,-89.9782,1012.64,11111222 
WAVCIS,ioos:station:WAVCIS:CSI09:1,2008-09-10T18:00:00Z,29.1015,-89.9782,1012.23,11111222 
WAVCIS,ioos:station:WAVCIS:CSI09:1,2008-09-10T19:00:00Z,29.1015,-89.9782,1011.87,11111222 
WAVCIS,ioos:station:WAVCIS:CSI09:1,2008-09-10T20:00:00Z,29.1015,-89.9782,1011.15,11111222 
WAVCIS,ioos:station:WAVCIS:CSI09:1,2008-09-10T21:00:00Z,29.1015,-89.9782,1010.77,11111222 
WAVCIS,ioos:station:WAVCIS:CSI09:1,2008-09-10T22:00:00Z,29.1015,-89.9782,1010.5,11111222 
WAVCIS,ioos:station:WAVCIS:CSI09:1,2008-09-10T23:00:00Z,29.1015,-89.9782,1010.05,11111222 
WAVCIS,ioos:station:WAVCIS:CSI09:1,2008-09-11T00:00:00Z,29.1015,-89.9782,1010.19,11111222 
WAVCIS,ioos:station:WAVCIS:CSI09:1,2008-09-11T01:00:00Z,29.1015,-89.9782,1010.29,11111222 
WAVCIS,ioos:station:WAVCIS:CSI09:1,2008-09-11T02:00:00Z,29.1015,-89.9782,1011.11,11111222 
WAVCIS,ioos:station:WAVCIS:CSI09:1,2008-09-11T03:00:00Z,29.1015,-89.9782,1011.31,11111222 
WAVCIS,ioos:station:WAVCIS:CSI09:1,2008-09-11T04:00:00Z,29.1015,-89.9782,1011.24,11111222 
WAVCIS,ioos:station:WAVCIS:CSI09:1,2008-09-11T05:00:00Z,29.1015,-89.9782,1011.21,11111222 
WAVCIS,ioos:station:WAVCIS:CSI09:1,2008-09-11T06:00:00Z,29.1015,-89.9782,1010.45,11111222 
WAVCIS,ioos:station:WAVCIS:CSI09:1,2008-09-11T07:00:00Z,29.1015,-89.9782,1009.45,11111222 
WAVCIS,ioos:station:WAVCIS:CSI09:1,2008-09-11T08:00:00Z,29.1015,-89.9782,1008.71,11111222 
WAVCIS,ioos:station:WAVCIS:CSI09:1,2008-09-11T09:00:00Z,29.1015,-89.9782,1008.29,11111222 
WAVCIS,ioos:station:WAVCIS:CSI09:1,2008-09-11T10:00:00Z,29.1015,-89.9782,1008.28,11111222 
WAVCIS,ioos:station:WAVCIS:CSI09:1,2008-09-11T11:00:00Z,29.1015,-89.9782,1008.27,11111222 
WAVCIS,ioos:station:WAVCIS:CSI09:1,2008-09-11T12:00:00Z,29.1015,-89.9782,1008.51,11111222 
WAVCIS,ioos:station:WAVCIS:CSI09:1,2008-09-11T13:00:00Z,29.1015,-89.9782,1008.52,11111222 
WAVCIS,ioos:station:WAVCIS:CSI09:1,2008-09-11T14:00:00Z,29.1015,-89.9782,1008.29,11111222 
WAVCIS,ioos:station:WAVCIS:CSI09:1,2008-09-11T15:00:00Z,29.1015,-89.9782,1008.11,11111222 
WAVCIS,ioos:station:WAVCIS:CSI09:1,2008-09-11T16:00:00Z,29.1015,-89.9782,1008.46,11111222 
WAVCIS,ioos:station:WAVCIS:CSI09:1,2008-09-11T17:00:00Z,29.1015,-89.9782,1007.94,11111222 
WAVCIS,ioos:station:WAVCIS:CSI09:1,2008-09-11T18:00:00Z,29.1015,-89.9782,1007.17,11111222 
WAVCIS,ioos:station:WAVCIS:CSI09:1,2008-09-11T19:00:00Z,29.1015,-89.9782,1006.562,11111222 
WAVCIS,ioos:station:WAVCIS:CSI09:1,2008-09-11T20:00:00Z,29.1015,-89.9782,1005.572,11111222 
WAVCIS,ioos:station:WAVCIS:CSI09:1,2008-09-11T21:00:00Z,29.1015,-89.9782,1004.615,11111222 
WAVCIS,ioos:station:WAVCIS:CSI09:1,2008-09-11T22:00:00Z,29.1015,-89.9782,1004.672,11111222 
WAVCIS,ioos:station:WAVCIS:CSI09:1,2008-09-11T23:00:00Z,29.1015,-89.9782,1004.189,11111222 